This is the latest recevied weather packets stored in our database for station/object 9M4GHZ-13. If no packets are shown the sender has not sent any weather packets the latest 10 day(s).
| Time | Temp. | Humidity | Pressure | Rain* | Wind** | Luminosity | Snow |
|---|---|---|---|---|---|---|---|
| 1777448404 | 31.67° C | 71% | 1005.7 hPa | - | - | - | - |
| 1777447805 | 31.67° C | 71% | 1005.8 hPa | - | - | - | - |
| 1777447204 | 32.22° C | 70% | 1006.2 hPa | - | - | - | - |
| 1777446604 | 32.78° C | 69% | 1006 hPa | - | - | - | - |
| 1777446004 | 32.78° C | 64% | 1006.3 hPa | - | - | - | - |
| 1777445404 | 32.22° C | 67% | 1006.2 hPa | - | - | - | - |
| 1777444805 | 32.78° C | 67% | 1006.6 hPa | - | - | - | - |
| 1777444204 | 32.78° C | 65% | 1006.7 hPa | - | - | - | - |
| 1777443604 | 32.78° C | 64% | 1006.5 hPa | - | - | - | - |
| 1777443005 | 32.22° C | 67% | 1006.7 hPa | - | - | - | - |
| 1777442404 | 32.22° C | 68% | 1007.2 hPa | - | - | - | - |
| 1777441804 | 32.22° C | 68% | 1007 hPa | - | - | - | - |
| 1777441205 | 32.78° C | 68% | 1007.1 hPa | - | - | - | - |
| 1777440604 | 32.22° C | 71% | 1007.3 hPa | - | - | - | - |
| 1777440004 | 32.22° C | 67% | 1007.3 hPa | - | - | - | - |
| 1777439405 | 32.78° C | 64% | 1007.6 hPa | - | - | - | - |
| 1777438803 | 32.78° C | 66% | 1008 hPa | - | - | - | - |
| 1777438204 | 32.22° C | 68% | 1008.1 hPa | - | - | - | - |
| 1777437606 | 32.22° C | 69% | 1008.4 hPa | - | - | - | - |
| 1777437004 | 32.22° C | 71% | 1008.6 hPa | - | - | - | - |
| 1777436403 | 31.67° C | 73% | 1008.4 hPa | - | - | - | - |
| 1777435805 | 31.67° C | 71% | 1008.7 hPa | - | - | - | - |
| 1777435204 | 31.67° C | 73% | 1008.8 hPa | - | - | - | - |
| 1777434604 | 31.67° C | 73% | 1009 hPa | - | - | - | - |
| 1777434005 | 32.22° C | 69% | 1009.2 hPa | - | - | - | - |
* Rain since midnight (hover to see other rain measurements)
** Current wind speed in m/s (hover to see current wind gust speed)